Погода Верещагино

Погода Верещагино : погода сейчас, прогноз погоды и архив. Всё, что Вы хотите узнать о погоде Верещагино!

Поиск расширенной информации на нашем сайте:

Другие новости

Новости СМИ2

Главная страница сайта

Новости сайта

02.10.2013

Напоминаем, что на нашем новом сайте вы можете получить высокодетализированные прогнозы погоды по пунктам России, СНГ и мира (включающие важные для авиации метеовеличины, такие как направление и скорость ветра, видимость, явления погоды, количество и форма облачности, нижняя и верхняя граница облачности), а также ознакомиться с разнообразными материалами по авиационной метеорологии и подборкой полезных ссылок на эту тему.

Сайт Метеоцентр.Азия посвящён разработке технологий оптимизации авиаметеорологического обслуживания, включая проектирование и перспективное создание нескольких автоматизированных авиаметеорологических систем:
- система выпуска высокодетальных прогностических карт явлений погоды для нижнего воздушного пространства по России и ближнему зарубежью;
- система верификации прогнозов TAF (выпускаемых синоптиками официальных АМСГ РФ и ближнего зарубежья) и AUTOTAF (выпускаемых сайтом Метеоцентр.Азия) - выявление ошибок, онлайн-сопоставление с фактической погодой METAR, автоматическое внесение коррективов в прогнозы при резком отклонении фактической погоды от прогноза, подсчёт оправдываемости прогнозов по элементам и в целом;
- система обработки, анализа и отображения авиаметеорологической информации для применения провайдерами метеорологической информации.

Рекомендуем: установить автосигнализацию

Погода Верещагино - сегодня

Время (UTC), дата Ветер
(°,м/с) 
Видим.   Явления Облачность Т
(°С)
Тd
(°С)
f(%) Тe
(°С)
Pmin
(гПа)
dP
(гПа)
Po
(мм)
O2
(г/м3)
Тmin Tmax R s Состояние
почвы
03 14.01.17 090 (В) н/о  слаб. снег  10/0 средняя, верхняя 
[Ac As|Cs]
-22.9 -25.4 80 -26  1031.6  1.1  770  341           
06 14.01.17 360 (С) 20000 м  {снег}  8/0 средняя, верхняя 
[Ac trans|Cs]
-25.8 -28.2 80 -26  1032.1  0.5  771  345           
09 14.01.17 090 (В) 20000 м    3/0 средняя, верхняя 
[Ac trans|Cs]
-27 -29.4 80 -28  1032.1  771  347           
12 14.01.17 020 (С) н/о    3/0 верхняя 
[Ci fib]
-28 -30.4 80 -29  1033.2  772  348    -22.5  0.3     
15 14.01.17 020 (С) н/о    8/0 верхняя 
[Cs]
-29.1 -31.5 80 -30  1033.9  0.7  772  350           
18 14.01.17 360 (С) н/о  {снег}  4/0 верхняя 
[Cs]
-29.6 -31.9 80 -30  1034.7  0.8  773  351           
21 14.01.17 020 (С) н/о    6/0 верхняя 
[Cs]
-31.4 -33.6 81 -32  1034.7  773  354           
00 15.01.17 020 (С) н/о    10/0 верхняя 
[Cs]
-32.8 -35.1 80 -34  1035.2  0.4  773  356  -33.5    0.0  66  равномерный
сухой снег
100% 
03 15.01.17 090 (В) н/о  слаб. снег  10/0 средняя, верхняя 
[Ac As|Cs]
-34 -36.8 76 -35  1036.8  1.6  774  358  -35         
06 15.01.17 360 (С) 20000 м  {снег}  ясно 
-30.4 -33.4 75 -31  1035.8  -0.9  774  353           
09 15.01.17 тихо ()   20000 м    ясно 
-30.2 -33.2 75 -30  1036.6  0.8  774  353           
12 15.01.17 тихо ()   н/о    ясно 
-34 -36.8 76 -34  1038.3  1.6  775  359    -28.5  0.0     
15 15.01.17 230 (ЮЗ) н/о    ясно 
-34.5 -37.4 75 -35  1039  0.7  776  360           
18 15.01.17 тихо ()   н/о    ясно 
-36.3 -39 76 -36  1038.7  -0.3  776  363           
21 15.01.17 200 (Ю) н/о    6/0 верхняя 
[Cs]
-35.8 -39.3 70 -37  1039.2  0.5  776  362           
00 16.01.17 090 (В) н/о    8/0 верхняя 
[Cs]
-35.1 -38 75 -36  1039.1  -0.1  776  361  -36.6      66  равномерный
сухой снег
100% 
03 16.01.17 160 (Ю) н/о    10/0 верхняя 
[Cs]
-31.5 -34.5 75 -32  1038.7  -0.3  776  355           
06 16.01.17 180 (Ю) 20000 м    10/0 верхняя 
[Cs]
-28.7 -31.8 75 -32  1037.6  -1.1  775  351           
09 16.01.17 200 (Ю) 20000 м    8/0 верхняя 
[Cs]
-28 -31.1 75 -29  1037.1  0.5  775  350           
12 16.01.17 180 (Ю) н/о    10/0 верхняя 
[Cs]
-25.8 -28.9 75 -31  1037.4  0.4  775  347    -25.8       
15 16.01.17 180 (Ю) н/о    10/0 верхняя 
[Cs]
-25.5 -28.6 75 -31  1036.6  -0.8  774  346           
18 16.01.17 180 (Ю) н/о  слаб. снег  10/0 средняя, верхняя 
[Ac trans|Cs]
-25.4 -28.5 75 -32  1036.1  -0.5  774  346           
21 16.01.17 180 (Ю) н/о  слаб. снег  10/0 средняя, верхняя 
[Ac trans|Cs]
-24.4 -27.6 75 -32  1035.2  -0.9  773  344           
00 17.01.17 200 (Ю) 6-12  н/о  слаб. снег  10/0 средняя 
[Ac As]
-24.5 -27.7 75 -33  1034.3  -0.9  773  344  -26    0.5  65  равномерный
сухой снег
100% 
03 17.01.17 200 (Ю) 6-12  н/о  слаб. снег  10/0 средняя 
[Ac As]
-23.6 -26.8 75 -32  1032.5  -1.8  771  342           
Время (UTC), дата Ветер
(°,м/с) 
Видим.   Явления Облачность Т
(°С)
Тd
(°С)
f(%) Тe
(°С)
Pmin
(гПа)
dP
(гПа)
Po
(мм)
O2
(г/м3)
Тmin Tmax R s Состояние
почвы

Для получения пояснительной информации подведите курсор к названию столбца.

ПОГОДА Верещагино - архив

Всё, что Вы хотите узнать о погоде Верещагино - удобно и подробно!

Выберите нужную дату (начиная с 1 января 2015* года) и нажмите кнопку "Найти".
Будут отображены архивные сводки погоды по пункту Верещагино, начиная с указанной даты.


Отображать данные в формате CSV (для использования в таблицах Excel)


Внимание! Наш архив погоды предназначен исключительно для личного некоммерческого использования в познавательных целях. Если Вам необходимы официальные справки о состоянии погоды (для производственных, юридических, коммерческих и т.п. целей), обращайтесь в органы Росгидромета.

*Примечание: данная дата относится к архиву по метеостанциям СССР (Россия, СНГ, Балтия).
Архив по метеостанциям Зарубежной Европы и Азии (кроме Китая) хранится 10 дней, по другим регионам земного шара (Китай, Африка, Америка, Австралия, Океания) - 1 день.

Верещагино - район местоположения метеостанции


Название, широта, долгота, высота метеостанции:
Верещагино 64.2°ш. 87.6°д. 26 м над ур. моря [Российская Федерация]

Дополнительная информация

В oтличие oт бoльшинства пoгoдных сайтoв мы публикуем пoдрoбную метеoинфoрмацию в детальнoм прoфессиoнальнoм фoрмате.

Характеристики температуры и влажнoсти вoздуха измеряются на высoте 2 м в тени вдали oт зданий и деревьев.
Скoрoсть ветра измеряется на высoте 10 м (на урoвне рoста челoвека скoрoсть ветра ниже в 1.5-2 раза). Если метеoстанция нахoдится в гoрoде или в лесу, тo скoрoсть ветра занижена на 2-4 м/с пo сравнению с oткрытым местoм. Скoрoсть ветра над акватoриями крупных рек и oзёр, а также на вершинах хoлмoв на 2-5 м/с выше, чем в oбычных услoвиях.
Атмoсфернoе давление в разных тoчках местнoсти мoжет значительнo oтличаться oт давления на метеoстанции, в зависимoсти oт услoвий рельефа (при пoдъёме на 10 м давление пoнижается примернo на 1 мм рт.ст.).